Location: Bellflower
(33.8817°N, 118.1170°W)
Time: 12:44:39
(UTC+00:00)

FALCON 9 DEB - Pass Details

Date: 23 November 2020
Orbit: 372 x 394 km, 53.0° (Epoch: 22 January)

Event Time Altitude Azimuth Distance (km) Brightness Sun altitude
Rises 13:31:36 0° 212° (SSW) 2,264 6.6 -12.7°
Reaches altitude 10° 13:33:41 10° 206° (SSW) 1,418 5.6 -12.3°
Maximum altitude 13:36:45 47° 131° (SE) 528 4.0 -11.7°
Drops below altitude 10° 13:39:52 10° 56° (NE) 1,439 6.3 -11.1°
Sets 13:41:59 0° 50° (NE) 2,303 7.3 -10.7°
